When you browse on this site, cookies collect data to enhance your experience and personalize the content and advertising you see.
Visit our Privacy Policy to learn more. By continuing to use the site, you agree to this use of cookies and data.

Hourly Weather Zhdanka

Today, 28 September, Monday

Time Temperature Precipitation Wind Pressure Humidity
00:00 +12°C° 0 mm 5 mps 746 mmHg 41%
01:00 +12°C° 0 mm 5 mps 746 mmHg 41%
02:00 +11°C° 0 mm 6 mps 746 mmHg 41%
03:00 +10°C° 0 mm 5 mps 746 mmHg 42%
04:00 +10°C° 0 mm 5 mps 746 mmHg 42%
05:00 +10°C° 0 mm 6 mps 746 mmHg 41%
06:00 +10°C° 0 mm 6 mps 746 mmHg 41%
07:00 +10°C° 0 mm 6 mps 746 mmHg 43%
08:00 +10°C° 0 mm 6 mps 746 mmHg 44%
09:00 +11°C° 0 mm 6 mps 746 mmHg 46%
10:00 +10°C° 0.2 mm 6 mps 746 mmHg 50%
11:00 +10°C° 0.2 mm 6 mps 747 mmHg 54%
12:00 +10°C° 0.2 mm 7 mps 747 mmHg 58%
13:00 +11°C° 0 mm 6 mps 747 mmHg 56%
14:00 +13°C° 0 mm 6 mps 747 mmHg 55%
15:00 +14°C° 0 mm 6 mps 747 mmHg 53%
16:00 +14°C° 0 mm 5 mps 747 mmHg 52%
17:00 +14°C° 0 mm 5 mps 746 mmHg 52%
18:00 +14°C° 0 mm 5 mps 746 mmHg 51%
19:00 +13°C° 0 mm 4 mps 746 mmHg 51%
20:00 +13°C° 0 mm 4 mps 746 mmHg 50%
21:00 +12°C° 0 mm 4 mps 746 mmHg 49%
22:00 +12°C° 0 mm 4 mps 746 mmHg 48%
23:00 +13°C° 0 mm 4 mps 746 mmHg 47%

Tomorrow, 29 September, Tuesday

Time Temperature Precipitation Wind Pressure Humidity
00:00 +13°C° 0 mm 4 mps 746 mmHg 45%
01:00 +13°C° 0 mm 4 mps 746 mmHg 45%
02:00 +13°C° 0 mm 4 mps 747 mmHg 45%
03:00 +13°C° 0 mm 5 mps 747 mmHg 44%
04:00 +13°C° 0 mm 5 mps 747 mmHg 44%
05:00 +13°C° 0 mm 5 mps 746 mmHg 44%
06:00 +13°C° 0 mm 5 mps 746 mmHg 44%
07:00 +13°C° 0 mm 5 mps 746 mmHg 45%
08:00 +13°C° 0 mm 5 mps 746 mmHg 45%
09:00 +13°C° 0 mm 6 mps 746 mmHg 46%
10:00 +14°C° 0 mm 6 mps 746 mmHg 46%
11:00 +14°C° 0 mm 6 mps 746 mmHg 45%
12:00 +15°C° 0 mm 6 mps 746 mmHg 45%
13:00 +15°C° 0 mm 6 mps 746 mmHg 42%
14:00 +16°C° 0 mm 6 mps 746 mmHg 39%
15:00 +17°C° 0 mm 6 mps 746 mmHg 36%
16:00 +15°C° 0 mm 5 mps 746 mmHg 38%
17:00 +14°C° 0 mm 5 mps 745 mmHg 39%
18:00 +13°C° 0 mm 4 mps 745 mmHg 41%
19:00 +13°C° 0 mm 4 mps 745 mmHg 41%
20:00 +12°C° 0 mm 4 mps 745 mmHg 41%
21:00 +12°C° 0 mm 4 mps 745 mmHg 41%
22:00 +11°C° 0 mm 4 mps 745 mmHg 42%
23:00 +11°C° 0 mm 4 mps 744 mmHg 42%

Day after tomorrow, 30 September, Wednesday

Time Temperature Precipitation Wind Pressure Humidity
00:00 +11°C° 0 mm 4 mps 744 mmHg 42%
01:00 +10°C° 0 mm 4 mps 744 mmHg 44%
02:00 +10°C° 0 mm 4 mps 744 mmHg 45%
03:00 +10°C° 0 mm 4 mps 744 mmHg 47%
04:00 +8°C° 0 mm 5 mps 744 mmHg 49%
05:00 +8°C° 0 mm 5 mps 744 mmHg 51%
06:00 +8°C° 0 mm 5 mps 744 mmHg 53%
07:00 +9°C° 0 mm 5 mps 744 mmHg 52%
08:00 +10°C° 0 mm 6 mps 744 mmHg 51%
09:00 +11°C° 0 mm 6 mps 744 mmHg 50%
10:00 +14°C° 0 mm 7 mps 744 mmHg 45%
11:00 +15°C° 0 mm 7 mps 744 mmHg 41%
12:00 +17°C° 0 mm 8 mps 744 mmHg 36%
13:00 +17°C° 0 mm 8 mps 744 mmHg 36%
14:00 +18°C° 0 mm 7 mps 744 mmHg 36%
15:00 +18°C° 0 mm 7 mps 743 mmHg 36%
16:00 +17°C° 0 mm 7 mps 743 mmHg 40%
17:00 +16°C° 0 mm 6 mps 743 mmHg 44%
18:00 +15°C° 0 mm 5 mps 743 mmHg 47%
19:00 +15°C° 0 mm 5 mps 743 mmHg 49%
20:00 +14°C° 0 mm 5 mps 744 mmHg 50%
21:00 +14°C° 0 mm 6 mps 744 mmHg 52%
22:00 +13°C° 0 mm 5 mps 744 mmHg 52%
23:00 +13°C° 0 mm 5 mps 744 mmHg 53%

1 October, Thursday

Time Temperature Precipitation Wind Pressure Humidity
00:00 +13°C° 0 mm 5 mps 744 mmHg 53%
01:00 +13°C° 0 mm 5 mps 744 mmHg 52%
02:00 +13°C° 0 mm 5 mps 744 mmHg 51%
03:00 +12°C° 0 mm 5 mps 744 mmHg 50%
04:00 +12°C° 0 mm 5 mps 744 mmHg 51%
05:00 +12°C° 0 mm 5 mps 744 mmHg 53%
06:00 +10°C° 0 mm 5 mps 744 mmHg 54%
07:00 +11°C° 0 mm 6 mps 744 mmHg 52%
08:00 +12°C° 0 mm 7 mps 744 mmHg 49%
09:00 +14°C° 0 mm 7 mps 744 mmHg 46%
10:00 +15°C° 0 mm 8 mps 744 mmHg 43%
11:00 +16°C° 0 mm 8 mps 744 mmHg 40%
12:00 +17°C° 0 mm 8 mps 744 mmHg 36%
13:00 +17°C° 0 mm 8 mps 744 mmHg 35%
14:00 +17°C° 0 mm 7 mps 744 mmHg 35%
15:00 +17°C° 0 mm 7 mps 744 mmHg 34%
16:00 +16°C° 0 mm 6 mps 744 mmHg 37%
17:00 +15°C° 0 mm 5 mps 744 mmHg 40%
18:00 +14°C° 0 mm 4 mps 744 mmHg 44%
19:00 +14°C° 0 mm 5 mps 744 mmHg 44%
20:00 +14°C° 0 mm 5 mps 744 mmHg 45%
21:00 +14°C° 0 mm 5 mps 744 mmHg 46%
22:00 +14°C° 0 mm 5 mps 744 mmHg 46%
23:00 +13°C° 0 mm 5 mps 744 mmHg 45%

2 October, Friday

Time Temperature Precipitation Wind Pressure Humidity
00:00 +13°C° 0 mm 5 mps 744 mmHg 45%
01:00 +13°C° 0 mm 5 mps 744 mmHg 47%
02:00 +12°C° 0 mm 5 mps 744 mmHg 49%
03:00 +12°C° 0 mm 5 mps 744 mmHg 51%
04:00 +12°C° 0 mm 5 mps 744 mmHg 54%
05:00 +10°C° 0 mm 5 mps 744 mmHg 58%
06:00 +10°C° 0 mm 5 mps 744 mmHg 61%
07:00 +12°C° 0 mm 5 mps 744 mmHg 61%
08:00 +11°C° 0 mm 6 mps 744 mmHg 61%
09:00 +13°C° 0 mm 6 mps 744 mmHg 61%
10:00 +14°C° 0 mm 6 mps 744 mmHg 57%
11:00 +15°C° 0 mm 6 mps 744 mmHg 54%
12:00 +16°C° 0 mm 6 mps 744 mmHg 50%
13:00 +16°C° 0 mm 7 mps 744 mmHg 49%
14:00 +17°C° 0 mm 7 mps 744 mmHg 48%
15:00 +17°C° 0 mm 7 mps 744 mmHg 48%
16:00 +16°C° 0 mm 6 mps 744 mmHg 50%
17:00 +15°C° 0 mm 5 mps 743 mmHg 52%
18:00 +15°C° 0 mm 4 mps 743 mmHg 54%
19:00 +14°C° 0 mm 5 mps 743 mmHg 55%
20:00 +14°C° 0 mm 5 mps 743 mmHg 56%
21:00 +13°C° 0 mm 5 mps 744 mmHg 57%
22:00 +13°C° 0 mm 5 mps 744 mmHg 59%
23:00 +13°C° 0 mm 5 mps 743 mmHg 61%

3 October, Saturday

Time Temperature Precipitation Wind Pressure Humidity
00:00 +12°C° 0 mm 5 mps 743 mmHg 62%
01:00 +12°C° 0 mm 5 mps 743 mmHg 60%
02:00 +12°C° 0 mm 5 mps 743 mmHg 58%
03:00 +12°C° 0 mm 5 mps 743 mmHg 56%
04:00 +12°C° 0 mm 5 mps 743 mmHg 55%
05:00 +10°C° 0 mm 5 mps 743 mmHg 54%
06:00 +10°C° 0 mm 5 mps 743 mmHg 52%
07:00 +10°C° 0 mm 5 mps 743 mmHg 53%
08:00 +12°C° 0 mm 5 mps 743 mmHg 54%
09:00 +12°C° 0 mm 5 mps 743 mmHg 55%
10:00 +13°C° 0.1 mm 5 mps 743 mmHg 53%
11:00 +14°C° 0.1 mm 5 mps 743 mmHg 51%
12:00 +15°C° 0.1 mm 6 mps 743 mmHg 49%
13:00 +14°C° 0.2 mm 6 mps 743 mmHg 54%
14:00 +14°C° 0.2 mm 6 mps 743 mmHg 59%
15:00 +13°C° 0.2 mm 6 mps 743 mmHg 64%
16:00 +13°C° 0.3 mm 5 mps 743 mmHg 65%
17:00 +12°C° 0.3 mm 5 mps 743 mmHg 65%
18:00 +12°C° 0.3 mm 4 mps 743 mmHg 66%
19:00 +12°C° 0 mm 4 mps 743 mmHg 66%
20:00 +12°C° 0 mm 4 mps 743 mmHg 66%
21:00 +12°C° 0 mm 4 mps 743 mmHg 67%
22:00 +11°C° 0 mm 4 mps 743 mmHg 67%
23:00 +11°C° 0 mm 4 mps 743 mmHg 68%
Show more